RH
14 15 17 20 22 26 29 31 36 43 46 48 51 50 50 51 52 59 61 51 46 44 37 33 29 27 29 29 28 29 30 36 49 59 62 67 72 73 74 74 75 78 79 79 81 80 81 81 78 77 78 82 88 91 96 98 94 91 88 80 77 81 78 69 64 59 48 40 42 47 49 51 51 52 54 51 51 51 50 47 45 46 48 51 53
13 14 16 19 21 26 30 30 34 40 45 47 49 49 50 51 50 58 62 53 46 45 45 41 34 32 31 32 31 29 33 36 42 57 65 69 73 73 72 70 69 71 72 74 76 76 77 79 80 80 79 77 72 73 85 94 97 98 93 86 82 83 79 70 65 62 53 42 41 47 49 51 52 52 53 52 50 50 52 50 45 46 49 50 52
14 14 16 19 22 27 30 31 32 38 44 45 47 46 48 50 49 55 59 54 50 47 48 44 40 42 40 40 39 34 41 50 55 64 66 66 67 64 65 66 66 67 66 66 69 71 70 71 74 76 79 84 80 75 80 88 93 96 96 93 91 89 83 73 69 64 54 44 42 46 47 49 52 52 53 52 50 50 51 48 46 48 49 50 52
15 16 20 22 25 28 31 32 32 37 41 42 46 46 46 48 48 54 57 55 52 46 45 46 48 54 54 54 54 49 51 54 55 60 61 62 62 60 63 69 69 67 65 65 63 62 65 69 73 74 73 78 85 87 90 92 90 89 94 96 97 96 88 77 69 64 60 52 46 44 43 46 49 50 52 53 50 50 49 47 47 49 48 49 50
16 20 27 27 27 29 30 32 33 36 38 39 45 46 45 46 48 56 59 55 53 48 49 53 55 59 59 58 57 53 50 45 43 47 53 59 61 61 64 69 71 69 69 69 65 63 67 71 74 77 77 76 78 81 85 90 90 89 91 93 96 97 91 83 76 70 66 59 51 46 45 47 45 40 46 54 52 49 48 46 48 50 48 47 48
19 21 25 26 26 26 28 30 31 34 37 39 44 46 45 43 48 58 59 54 54 52 50 51 51 49 45 44 42 40 40 43 47 51 55 59 64 67 66 66 69 72 73 72 69 69 73 75 76 77 78 77 77 76 76 80 85 89 90 89 93 97 93 89 86 78 70 63 57 54 52 53 47 39 43 49 49 50 49 45 47 52 50 48 46
21 21 22 24 24 24 26 27 28 31 35 39 43 47 47 43 48 60 57 52 54 52 47 47 49 47 44 44 42 39 42 50 58 61 60 60 66 72 69 66 66 69 73 75 74 73 72 74 76 77 75 73 74 75 75 75 78 85 87 83 84 93 97 95 91 83 74 69 64 60 57 54 49 44 45 43 44 51 52 48 47 49 49 49 46
21 22 22 23 24 24 25 26 27 30 33 36 42 51 51 45 51 61 56 52 54 51 47 46 47 49 50 49 47 46 51 58 61 60 60 61 65 71 70 68 66 65 68 73 76 75 73 72 72 74 73 70 68 70 73 73 73 78 85 84 79 86 94 94 93 86 78 76 73 67 62 57 49 45 47 44 42 47 50 49 47 45 47 48 46
20 22 22 23 24 24 24 25 27 30 31 35 46 58 57 50 56 63 56 53 56 54 50 49 48 48 49 48 48 50 54 57 55 54 59 63 66 69 69 69 68 67 66 67 71 74 74 74 73 72 70 69 65 62 65 68 72 75 81 85 83 85 90 90 91 88 82 82 80 73 70 68 58 49 49 47 44 45 45 47 47 45 46 45 41
18 20 21 22 23 23 24 26 28 28 31 39 52 62 61 57 63 65 57 55 58 56 54 55 53 49 49 52 53 53 55 55 54 58 62 62 63 67 66 64 63 66 67 66 68 71 74 77 77 75 72 70 67 62 63 67 72 75 77 81 86 91 96 95 94 92 87 85 82 77 76 77 69 61 58 52 47 45 42 44 45 43 43 41 40
16 18 20 21 22 23 24 27 27 29 38 47 57 64 64 63 67 65 58 57 59 58 56 59 58 52 54 59 60 61 63 62 60 62 63 61 62 64 63 61 60 62 66 67 67 69 71 75 78 79 77 75 71 65 64 66 69 73 75 77 83 90 97 99 99 97 91 86 84 81 78 76 73 71 68 62 58 54 49 47 41 37 40 41 44
14 16 18 21 23 24 25 27 28 36 51 56 60 66 67 67 68 65 61 59 60 61 59 61 60 56 59 62 63 67 69 67 64 64 66 65 64 63 59 59 60 60 62 63 65 68 71 73 75 77 77 77 76 72 69 67 66 68 72 74 77 82 91 96 98 97 91 88 89 87 81 75 74 74 72 69 70 71 71 66 49 35 36 40 43
13 15 17 20 25 27 29 31 32 41 57 61 62 67 68 68 68 64 62 61 61 62 62 62 62 60 61 63 64 68 69 69 66 66 68 64 62 64 61 58 57 58 60 61 64 70 73 72 72 73 73 74 78 80 80 78 71 67 68 71 74 76 82 89 94 94 89 88 91 89 88 85 80 78 77 73 73 78 84 85 71 50 39 34 35
12 12 14 18 23 28 31 31 31 38 51 57 61 66 66 67 68 65 62 62 63 63 63 62 63 63 63 62 62 64 67 68 64 62 67 64 59 61 62 60 58 58 62 64 66 70 72 74 74 74 75 75 76 79 82 83 79 74 70 69 70 72 75 80 88 92 89 89 89 86 87 89 84 80 82 79 76 81 86 87 86 73 53 39 31
12 11 13 16 19 25 29 28 28 32 38 45 54 63 65 65 66 64 61 63 65 63 63 63 63 66 65 62 62 60 61 63 59 57 63 65 63 64 64 63 62 62 63 66 69 72 74 76 78 79 78 78 77 76 77 81 83 80 76 72 71 70 71 74 82 90 93 91 88 85 85 85 83 80 81 82 79 82 84 80 86 87 73 54 38
11 12 13 15 19 22 25 26 26 26 30 35 43 58 66 63 64 64 60 62 66 63 63 64 64 67 66 63 63 61 58 57 56 56 61 66 69 69 69 68 67 66 66 68 72 74 76 77 77 78 78 78 79 79 80 82 84 83 80 77 74 71 69 70 74 83 92 95 91 89 87 84 84 83 82 83 80 80 82 79 83 88 85 73 52
11 12 13 15 17 20 24 26 24 25 27 29 36 54 66 63 62 63 58 60 65 63 62 63 64 67 67 65 64 63 61 59 58 61 67 70 71 71 70 70 71 71 71 73 75 76 77 75 74 74 74 75 77 80 83 84 83 83 83 81 78 73 70 68 69 71 79 90 94 93 90 85 85 87 87 86 83 81 83 82 83 83 85 87 72
11 11 12 13 15 19 22 23 23 25 25 26 35 53 65 63 60 60 57 58 63 62 60 61 63 66 66 65 65 65 65 64 63 67 71 71 71 71 70 69 69 72 74 74 76 75 73 70 70 70 70 71 72 74 79 82 82 82 83 84 82 78 74 70 69 67 68 77 86 91 93 88 86 88 89 88 85 84 84 85 85 83 84 89 85
12 11 12 13 15 18 19 20 21 21 21 28 42 55 63 63 60 57 54 56 61 61 60 62 61 63 64 65 67 67 67 67 67 68 70 70 70 69 69 70 71 72 72 69 69 70 68 66 65 64 65 69 71 72 76 80 83 84 84 85 84 82 79 74 70 67 65 67 74 82 89 90 88 87 88 88 86 85 85 85 85 85 85 86 86
13 11 13 13 15 16 16 18 18 17 27 44 55 60 64 63 59 56 53 56 61 60 60 61 59 60 63 64 66 66 65 67 68 69 69 69 68 68 69 70 70 68 66 63 64 65 65 63 62 61 63 67 70 72 75 78 82 85 85 84 83 82 80 77 73 68 65 63 65 72 80 87 89 85 84 86 87 86 86 84 83 86 88 86 88
14 13 13 13 15 15 14 16 15 18 37 54 59 60 62 60 57 54 54 57 61 60 60 60 58 60 62 63 65 66 65 66 68 69 70 69 68 69 68 65 62 60 59 59 61 62 62 62 61 60 62 65 69 72 74 76 79 83 86 84 82 82 78 76 74 70 66 63 60 61 68 77 82 79 78 81 83 85 85 84 84 86 88 89 91
15 15 14 13 14 14 15 16 13 18 34 47 52 55 57 57 55 53 54 56 59 60 59 57 58 60 63 64 66 67 67 67 68 69 69 69 68 68 66 62 58 57 57 57 58 59 59 60 61 62 64 67 70 73 74 76 78 81 84 85 84 83 82 81 78 72 68 65 61 57 56 62 69 72 76 79 78 78 81 85 86 88 88 85 89
15 15 15 14 14 14 14 15 15 21 31 41 48 50 51 54 53 51 53 54 57 59 56 55 58 61 64 66 66 67 66 67 69 68 68 68 67 67 64 59 56 57 57 58 58 58 56 58 61 64 68 70 71 73 74 77 79 79 81 83 85 85 84 86 85 80 73 67 64 59 54 55 59 64 72 78 78 75 77 79 78 83 86 78 80
16 15 15 15 15 15 13 13 18 24 30 40 45 43 47 52 49 48 53 54 54 55 52 53 58 61 64 65 65 64 64 67 69 67 67 68 67 66 63 58 56 56 57 58 59 60 60 62 66 68 70 72 72 73 75 78 79 79 79 81 84 85 83 83 85 86 83 76 69 63 58 54 53 56 63 71 77 79 79 78 74 78 83 77 76
16 15 16 16 15 15 14 13 17 21 27 37 42 40 44 49 46 46 52 53 51 51 50 51 55 60 64 64 64 63 63 67 68 67 67 67 66 65 62 58 56 55 57 59 61 65 67 68 70 71 71 72 72 72 74 76 78 79 80 81 83 84 83 81 81 83 86 85 79 72 64 58 53 53 55 60 71 80 81 81 78 77 81 82 81
17 16 17 18 16 15 14 14 17 17 20 30 36 36 41 46 47 48 52 51 50 50 49 49 50 56 61 62 62 63 63 66 66 66 66 65 64 62 61 59 57 56 58 62 64 67 71 73 73 72 72 71 71 72 73 74 76 78 80 81 81 82 83 83 81 82 83 84 84 80 72 65 61 59 56 53 59 69 74 78 82 81 80 83 86
16 17 18 18 17 17 16 16 18 16 17 25 32 33 38 46 49 49 50 50 50 51 50 49 50 54 55 55 57 60 62 64 63 63 64 63 61 60 60 59 56 57 60 62 64 67 70 74 75 72 71 70 70 72 73 75 76 77 79 81 81 81 83 84 84 83 83 82 82 82 78 72 68 65 60 55 54 59 67 76 82 82 80 81 84
14 16 19 18 18 19 20 19 18 18 20 25 30 31 36 45 47 45 47 51 52 52 51 50 51 53 51 51 55 58 60 61 61 61 61 59 58 59 59 58 56 59 63 65 67 69 70 72 73 72 71 72 72 74 74 75 76 76 77 79 79 81 83 85 85 84 84 82 80 80 80 77 73 68 63 60 57 56 62 71 78 80 80 79 82
22 19 18 18 19 19 21 22 19 19 24 26 27 30 35 41 41 41 47 53 54 52 51 50 50 50 51 54 57 59 60 60 60 59 58 57 58 59 59 58 59 62 66 67 68 69 70 70 70 70 71 72 73 73 74 74 75 75 76 76 77 80 83 85 86 84 83 82 80 78 79 78 76 72 68 65 63 59 59 64 73 82 85 82 83
27 27 21 16 18 20 20 21 21 22 26 26 24 28 34 37 38 41 47 51 51 49 47 46 45 48 53 55 56 56 57 57 57 56 57 58 59 60 60 61 62 64 66 68 69 71 72 72 71 71 72 73 72 72 73 75 76 77 77 77 77 78 80 83 85 84 83 82 80 78 77 77 77 76 73 69 67 66 62 61 67 78 87 87 87
23 34 33 20 17 21 19 20 25 27 26 24 24 26 30 33 37 41 44 46 46 44 43 42 43 47 52 53 52 52 52 53 54 54 56 58 58 58 60 61 62 64 66 68 71 73 74 74 74 73 73 72 72 72 73 75 76 78 80 81 81 80 81 83 83 83 83 82 81 79 77 76 76 77 77 73 70 69 66 65 63 69 82 89 88
20 33 43 36 28 24 21 22 27 28 24 23 24 25 27 32 35 38 40 40 40 41 41 43 44 46 49 50 49 49 50 52 52 50 53 57 57 57 58 57 58 62 66 68 71 72 73 73 73 73 73 72 73 73 73 74 75 77 79 82 84 83 83 84 83 82 81 80 80 78 77 76 75 74 75 73 71 69 67 68 65 65 75 84 85
19 24 37 43 34 23 21 25 26 24 23 24 25 24 25 31 34 35 35 35 37 40 40 42 45 46 47 48 48 48 50 51 49 47 53 58 57 55 54 55 58 63 67 69 71 71 72 72 72 72 72 72 73 72 72 74 74 76 77 80 83 84 84 85 85 83 80 79 79 77 76 75 74 72 72 70 69 68 67 68 66 67 74 80 80
18 20 30 37 29 21 22 24 23 23 24 24 24 24 25 30 33 32 32 33 36 38 40 42 44 45 45 47 48 48 49 48 46 48 54 57 55 52 53 56 61 65 67 69 70 71 72 73 73 74 74 74 74 73 73 74 74 75 77 78 81 84 84 84 85 85 83 81 80 78 76 74 72 70 69 67 66 65 65 68 67 66 73 79 76
32 35 35 29 23 22 24 25 25 27 27 25 25 26 27 31 33 31 32 33 34 36 40 43 45 45 45 46 47 48 47 46 47 50 54 54 52 50 53 59 64 67 67 67 68 69 71 74 74 75 76 76 76 76 76 76 76 76 78 79 83 87 85 83 84 85 85 83 82 80 78 76 75 71 67 64 64 64 64 68 72 70 71 78 79
49 48 36 24 22 25 29 30 30 30 30 29 27 28 29 31 32 32 32 34 34 35 38 42 45 45 44 45 46 47 47 47 49 51 51 50 49 51 56 62 65 67 67 66 67 68 70 71 72 72 73 74 75 76 77 79 79 80 80 81 84 86 86 84 83 84 85 85 84 82 79 78 78 78 74 66 62 64 63 63 71 78 78 78 81
46 35 28 26 28 31 34 36 35 32 32 30 28 30 32 32 32 32 32 33 35 36 37 40 42 42 42 45 45 45 46 46 47 48 47 47 48 53 59 64 66 66 65 65 66 67 67 68 69 70 71 72 73 74 76 78 81 81 82 84 84 84 83 83 83 83 84 84 84 84 82 78 77 79 80 73 65 63 65 62 63 73 81 82 85
39 28 33 34 33 34 37 38 36 34 32 29 29 31 32 32 32 31 31 33 34 35 36 37 38 38 40 43 44 44 44 44 44 44 46 48 52 56 60 65 67 66 65 66 67 66 65 66 68 69 71 72 72 73 74 77 79 80 82 84 85 84 82 82 82 82 83 84 84 85 85 82 77 76 78 79 72 64 66 67 61 66 81 90 94
37 32 36 35 35 35 35 36 36 34 32 29 29 32 32 31 31 30 30 31 32 34 35 35 35 36 38 42 45 46 45 45 45 46 49 52 55 57 62 67 68 68 67 67 67 66 65 66 67 69 71 72 73 73 74 77 79 80 83 85 86 86 84 84 82 81 82 83 83 85 86 85 83 79 77 79 77 71 69 69 64 71 87 96 99
35 33 31 33 38 36 32 34 35 33 33 31 30 32 32 31 30 30 31 32 34 36 35 33 34 36 39 43 46 46 46 47 48 48 50 52 54 57 64 69 70 70 69 68 68 67 67 66 67 69 70 72 74 75 76 78 79 81 84 87 89 90 90 87 84 82 82 83 83 83 83 83 84 84 81 80 79 79 80 74 68 76 89 94 97
30 32 33 32 34 32 30 33 34 34 34 32 32 33 32 30 31 32 33 35 36 36 33 33 35 36 38 41 42 44 46 49 49 49 48 49 52 58 66 70 71 71 71 70 69 68 67 67 67 69 70 70 73 75 77 79 80 82 85 89 92 95 95 92 88 85 83 83 82 82 81 82 82 83 83 81 77 79 85 82 75 78 85 89 94
37 38 36 30 30 32 33 34 34 34 34 33 32 32 30 31 32 33 35 35 35 34 32 33 35 35 37 41 43 46 49 50 49 48 47 47 52 61 68 70 71 72 71 70 69 68 68 68 69 70 70 70 71 73 74 77 80 83 85 89 93 96 97 96 91 87 84 83 82 82 81 80 81 81 81 80 76 75 80 83 82 83 84 86 90
42 38 32 28 30 33 34 35 34 33 33 33 32 31 30 32 33 34 36 35 33 31 31 33 35 35 37 42 44 45 47 47 47 47 46 46 53 64 69 71 72 73 71 70 70 69 69 69 70 71 73 73 73 72 72 74 78 83 86 89 93 97 98 98 95 89 85 84 82 82 82 81 82 82 80 79 77 74 76 82 87 87 84 85 88
35 32 30 29 29 29 33 37 34 31 32 32 31 31 31 31 32 34 35 34 32 32 33 34 35 34 35 37 38 39 43 44 44 44 43 44 53 63 68 69 71 73 72 71 71 71 72 73 75 79 81 80 78 75 74 76 79 85 89 92 96 99 99 100 98 92 87 86 85 83 82 81 81 81 79 77 74 72 77 87 92 88 85 87 88
30 32 31 29 28 30 35 38 34 30 31 31 31 31 31 30 32 34 34 32 33 34 35 34 32 30 31 33 33 35 38 39 39 41 41 42 52 61 64 66 72 76 76 75 74 76 79 83 85 87 86 84 82 80 80 80 84 91 96 97 99 100 100 100 100 97 93 90 88 86 86 85 83 83 84 83 79 77 83 92 93 87 86 88 88
31 34 33 30 31 34 37 37 35 31 30 30 31 30 29 31 33 33 32 32 33 33 33 32 29 29 30 31 30 31 33 34 37 39 39 42 51 59 62 67 74 80 81 80 80 83 88 90 90 91 91 88 87 86 85 85 90 97 100 100 100 101 100 100 101 100 98 93 89 89 94 95 90 86 87 89 90 92 93 94 91 87 86 89 88
34 36 35 33 34 35 35 36 36 32 29 31 31 28 28 32 32 31 31 32 31 31 31 31 30 30 28 27 27 29 31 32 33 34 37 42 48 55 62 68 75 81 84 86 88 90 92 94 94 95 96 96 93 91 91 92 96 99 100 100 100 100 100 101 100 100 100 98 94 95 99 99 94 91 92 93 97 100 98 94 92 89 87 88 87
36 36 35 34 33 32 31 34 37 34 30 31 30 27 28 32 31 31 32 31 30 31 31 30 30 29 27 27 28 29 31 31 30 31 35 40 45 53 62 69 75 83 88 91 95 98 97 98 99 99 100 100 98 97 97 98 99 100 100 100 100 100 100 101 101 100 100 100 100 100 100 100 98 99 100 99 100 100 99 97 95 91 88 88 87
35 35 34 32 31 30 29 34 39 37 31 30 29 28 28 31 31 31 32 32 32 32 32 30 29 28 28 29 30 31 31 31 31 31 33 38 44 52 60 67 74 81 87 90 96 101 100 100 101 100 100 100 100 100 100 100 100 100 100 100 100 98 98 100 100 100 100 100 100 101 100 100 101 100 100 100 100 100 99 99 97 94 91 89 88
32 34 33 31 33 34 32 35 41 40 33 30 29 29 29 30 31 32 32 33 33 31 30 29 28 29 31 32 32 32 32 33 33 32 32 36 41 47 55 63 70 76 81 85 92 98 100 100 100 100 100 100 100 100 100 100 101 99 98 101 99 94 94 100 101 99 100 100 100 100 100 100 100 100 99 100 100 100 99 99 98 95 92 91 90
31 31 29 31 36 38 35 35 40 39 35 30 29 30 30 30 31 32 33 33 30 28 28 28 29 31 33 34 33 33 33 34 34 33 33 36 39 42 47 55 63 71 78 84 89 95 98 100 99 100 101 100 100 101 100 100 101 100 99 101 99 91 91 98 102 100 100 100 98 98 98 98 97 96 96 97 98 97 97 96 96 94 92 91 91
Wind_Speed
11 14 16 18 19 18 17 16 16 15 14 14 13 12 11 10 9 8 7 5 3 3 3 3 3 4 5 7 8 8 8 7 4 3 3 3 3 4 3 3 4 5 4 3 4 5 6 9 11 13 15 14 16 19 19 17 20 21 20 20 20 20 20 15 13 15 14 11 9 11 13 15 15 16 17 17 18 18 17 18 17 16 15 16 16
12 14 15 17 19 20 19 17 17 16 15 15 14 13 12 11 10 9 8 7 5 4 4 3 3 4 4 6 6 7 8 7 5 3 3 3 3 3 3 3 4 5 5 4 5 5 6 7 7 8 10 13 17 20 21 20 22 23 22 23 23 23 23 18 13 14 15 13 10 10 12 13 15 17 18 18 19 18 18 19 18 17 17 16 16
13 11 12 15 18 20 20 18 18 17 16 15 15 14 13 12 11 10 9 8 7 6 5 4 4 3 4 5 5 6 6 6 4 3 2 3 2 2 3 4 5 6 6 6 6 6 6 7 7 8 8 9 12 15 19 21 23 24 24 25 22 21 23 21 16 16 17 14 11 9 8 8 11 15 18 19 20 19 19 20 19 18 18 17 17
12 9 10 14 17 20 20 19 18 17 16 15 15 15 14 13 12 11 10 9 9 8 7 5 4 3 4 3 4 4 4 4 4 3 3 3 3 2 3 5 6 7 7 6 7 7 7 8 8 9 10 9 10 11 14 17 21 23 25 27 24 20 22 21 19 19 19 15 10 8 8 8 8 11 16 19 20 20 21 20 19 18 19 18 18
10 10 11 13 16 19 20 20 18 17 16 15 15 15 14 13 13 12 11 10 10 10 9 6 4 3 3 2 2 3 3 4 4 4 3 3 2 2 3 4 6 6 7 7 7 8 7 8 9 9 10 11 11 12 13 14 18 21 23 26 26 24 23 20 18 19 20 19 15 10 7 6 7 9 12 15 19 21 21 21 20 19 19 18 18
9 10 12 13 15 18 20 20 18 18 17 16 15 15 15 14 14 14 12 11 11 11 9 7 5 4 3 2 2 1 2 4 4 3 3 3 2 2 3 4 5 6 6 6 7 8 8 8 8 10 11 12 12 13 14 14 16 19 22 24 25 27 27 20 18 21 22 22 23 20 16 11 9 9 7 8 15 19 19 21 21 20 20 19 19
9 10 11 13 15 17 18 19 19 18 18 17 16 15 15 14 14 15 13 11 11 11 9 7 5 5 4 3 2 1 2 3 2 2 1 1 1 2 2 3 4 5 6 6 7 7 8 9 9 10 11 12 13 13 14 15 15 16 19 23 25 27 28 23 21 24 21 21 25 24 22 20 16 12 9 7 7 12 17 20 21 22 21 20 20
10 10 11 13 15 16 18 19 19 18 18 17 16 15 16 15 15 15 13 12 12 11 10 8 6 5 5 4 3 3 3 3 3 2 1 1 1 1 2 3 3 4 5 6 6 7 8 9 10 11 11 12 13 13 14 15 16 15 16 21 25 28 29 28 28 27 23 21 25 24 21 20 19 16 15 13 8 6 11 16 19 21 22 22 22
11 11 11 12 15 17 18 19 19 19 18 17 16 16 16 16 16 16 14 12 13 12 11 9 7 6 5 4 4 4 4 3 3 2 1 1 0 1 2 2 3 3 4 5 6 7 7 9 10 11 12 12 13 14 14 14 15 15 15 18 23 27 29 32 33 32 28 23 21 24 23 18 16 17 18 18 14 9 7 8 13 18 21 23 23
12 12 12 13 15 17 18 19 19 18 17 17 16 16 16 16 16 16 15 13 13 13 12 10 9 7 6 5 5 5 4 3 3 2 2 1 1 1 1 2 2 2 3 4 5 6 7 8 9 11 12 13 14 14 15 14 15 15 16 17 19 22 25 30 34 34 32 28 22 23 23 16 11 12 14 16 15 14 11 9 10 13 14 17 19
11 12 13 14 16 18 19 19 19 17 16 17 16 16 16 16 17 17 16 14 14 14 13 12 10 8 7 7 6 6 5 4 4 4 3 2 2 2 1 2 2 2 3 3 4 5 6 7 9 10 11 13 14 15 15 15 15 16 16 17 18 20 21 25 31 34 32 30 27 25 26 24 18 12 12 13 11 11 11 10 13 14 13 14 15
12 12 12 13 15 17 18 17 17 16 16 17 17 16 16 17 17 18 17 16 15 14 14 13 11 9 8 8 7 7 6 5 5 4 4 3 3 3 2 3 3 3 3 4 4 4 5 7 8 10 11 12 13 14 15 15 15 16 16 17 18 20 21 23 26 30 32 31 29 27 28 29 27 22 20 18 14 12 10 9 15 17 13 15 17
11 12 12 12 12 14 16 16 16 17 17 18 17 17 16 16 17 17 18 17 15 15 15 14 12 11 10 9 8 8 7 6 5 5 5 4 4 4 3 4 4 4 4 4 5 5 6 7 8 9 11 12 13 14 16 16 15 16 17 18 19 19 21 23 24 26 31 34 33 31 29 28 29 28 26 25 22 18 12 9 15 21 16 14 16
11 12 12 12 12 14 16 18 18 19 18 17 17 17 16 16 17 17 17 17 16 15 15 15 14 12 11 10 9 8 8 7 6 5 5 4 4 5 5 5 5 5 6 6 6 6 7 8 9 10 11 13 14 15 16 17 16 17 18 19 20 20 20 22 22 24 28 32 33 33 33 31 31 31 28 28 27 21 17 13 11 18 20 18 16
12 12 12 13 14 16 17 18 18 19 19 17 16 16 16 15 17 17 17 18 18 16 16 16 15 13 12 11 10 9 8 7 6 5 5 5 5 5 5 5 6 6 7 7 8 8 9 9 10 11 12 13 15 16 17 17 17 17 18 19 20 20 20 21 21 22 25 29 33 33 34 35 37 37 33 32 31 27 24 21 13 9 13 15 14
11 12 12 12 15 17 18 17 17 17 18 17 16 16 16 15 16 17 17 17 18 16 16 15 15 14 13 12 11 9 8 7 6 6 5 5 5 6 6 6 7 7 8 8 9 10 10 11 11 11 12 13 15 16 17 18 18 18 18 19 20 20 20 21 22 22 23 26 30 33 33 35 36 38 39 37 36 34 30 27 21 13 9 9 10
11 11 12 12 13 16 17 17 17 16 16 17 16 16 16 16 16 16 16 17 18 17 16 15 15 14 13 12 11 10 9 8 7 6 6 6 6 6 6 7 7 8 8 9 10 10 11 12 12 13 13 14 15 17 17 18 18 19 19 19 20 21 21 22 22 23 24 24 27 32 34 35 34 33 37 38 38 37 34 31 27 24 18 9 8
12 12 13 12 13 15 17 18 17 17 17 16 14 13 15 16 16 17 17 18 19 18 16 16 15 14 13 13 12 10 9 8 7 7 6 6 7 7 7 7 8 8 9 9 11 12 13 14 14 14 15 16 17 17 18 18 19 20 20 21 21 21 22 23 22 23 25 24 26 31 33 34 34 33 34 36 38 38 36 33 30 30 26 17 11
11 12 12 11 12 15 17 18 18 19 17 14 14 14 14 15 16 16 17 18 19 18 17 17 16 14 13 12 12 10 9 8 8 7 7 7 8 8 8 8 8 9 10 12 14 14 14 14 15 16 17 18 18 18 18 18 19 20 21 21 21 21 22 23 23 24 24 24 25 29 31 32 34 37 37 36 37 40 39 36 32 30 29 28 24
10 11 11 12 12 16 18 18 19 19 14 14 16 16 16 15 15 15 16 18 19 19 18 17 16 14 13 13 12 10 9 9 8 8 8 8 9 9 9 9 10 11 11 13 15 15 15 15 16 17 18 19 19 19 19 18 19 20 20 21 21 21 22 23 24 25 24 25 25 26 29 31 33 36 37 35 34 35 39 40 36 32 29 29 30
10 11 11 12 13 16 18 18 19 18 16 17 16 16 16 15 15 16 16 18 20 19 18 17 16 14 13 13 12 10 10 9 9 9 9 9 10 10 10 11 12 13 14 15 16 16 17 17 17 18 19 20 20 20 20 19 20 20 20 22 21 22 23 24 25 26 26 26 27 27 28 30 32 33 34 33 31 31 35 38 37 36 35 30 29
11 11 11 11 12 16 18 18 19 15 16 17 16 15 16 15 15 15 16 18 20 19 18 17 16 15 14 13 11 10 10 9 9 10 10 11 11 11 12 12 13 15 17 18 18 18 18 18 19 19 20 21 21 21 21 20 21 21 21 22 22 22 23 24 25 26 27 27 27 28 28 28 30 31 32 32 32 32 30 31 32 33 36 35 30
12 12 12 11 12 15 17 18 16 13 13 15 15 15 15 14 15 15 16 18 19 19 18 16 15 14 14 12 11 10 10 10 10 10 11 11 12 12 13 13 15 17 19 20 20 20 20 20 21 21 21 21 22 22 22 22 22 22 23 22 22 23 23 24 25 26 26 27 28 29 29 29 29 29 31 32 33 35 32 30 30 30 35 41 36
13 12 12 12 13 14 16 15 14 13 13 15 15 14 13 13 13 14 16 18 18 18 17 16 15 14 13 12 11 10 10 10 10 10 11 11 12 12 14 15 16 17 19 21 21 21 22 22 23 23 23 23 23 23 23 23 23 24 24 24 24 24 25 25 26 26 26 27 28 29 29 29 30 30 32 32 31 35 35 32 32 31 33 41 42
14 14 13 14 14 14 13 13 14 15 16 16 14 13 13 13 13 14 16 17 17 17 16 16 15 14 13 12 11 10 10 10 10 10 10 11 12 13 14 15 16 17 20 21 22 22 23 23 24 24 24 25 25 25 25 24 25 25 25 26 25 25 26 26 27 27 27 28 28 29 30 30 30 30 31 32 31 32 33 32 34 35 33 36 40
16 16 15 14 14 14 13 13 14 16 16 15 14 13 13 13 13 14 15 16 16 16 16 15 14 13 12 11 10 10 9 9 10 10 10 11 12 13 14 15 16 19 21 21 22 23 23 24 26 26 26 26 26 26 26 26 26 26 26 27 27 28 27 27 28 28 28 29 29 29 31 31 31 31 31 32 32 32 33 32 34 40 40 36 37
16 16 16 16 15 14 14 14 15 15 13 12 13 14 15 15 15 15 15 16 16 15 15 14 13 12 11 10 10 9 9 9 9 9 10 11 12 13 14 16 18 20 21 22 22 23 24 25 26 27 27 28 28 27 27 27 27 27 27 27 28 29 29 29 29 29 29 30 31 31 31 32 33 34 33 32 32 32 32 32 33 37 40 36 33
16 16 18 18 17 16 14 14 15 14 12 13 14 14 16 16 16 15 15 16 16 15 15 14 13 11 10 9 9 9 8 9 9 9 10 11 12 14 15 17 19 20 21 22 22 24 25 25 26 27 27 27 28 28 28 28 28 28 28 29 29 30 30 30 30 30 30 30 32 32 33 34 35 36 35 33 32 32 31 31 32 33 33 33 30
15 17 19 18 16 16 14 14 15 14 14 15 15 15 16 17 16 16 16 16 16 15 15 13 12 11 10 9 9 8 8 9 9 10 10 12 14 15 17 19 20 20 22 23 23 24 25 26 27 27 27 28 29 29 29 29 28 27 27 28 29 30 30 30 30 31 31 31 32 32 33 35 38 39 39 37 36 35 33 31 30 29 31 34 31
16 15 19 19 16 15 15 14 14 16 17 16 15 15 16 16 16 17 17 17 16 15 14 13 12 11 10 9 8 8 8 9 9 9 11 13 15 17 18 19 20 21 22 23 24 25 26 27 28 28 29 30 31 31 31 31 30 30 29 28 28 29 29 30 30 31 31 32 32 32 33 36 39 41 43 43 42 40 39 37 32 29 31 36 35
16 12 16 18 15 15 16 13 14 16 17 16 15 15 15 15 17 17 17 17 16 15 14 12 11 10 9 9 8 8 8 9 8 10 12 14 16 17 18 19 20 21 22 23 24 25 26 27 28 29 30 32 33 33 33 33 33 33 33 32 31 30 29 29 30 31 31 31 32 32 33 34 37 40 43 45 46 45 45 43 39 35 33 36 39
19 10 12 17 15 15 15 13 15 17 17 16 14 14 14 15 17 17 17 16 16 14 13 11 10 9 8 7 7 7 8 8 9 12 14 15 16 17 18 20 21 22 23 23 24 25 25 26 28 29 31 32 34 34 34 35 35 35 35 35 34 33 32 31 31 31 31 31 31 31 32 32 34 37 39 41 43 46 48 48 45 41 37 38 39
22 16 13 16 15 13 13 14 16 17 16 15 15 14 14 15 16 16 16 16 15 13 12 11 9 8 7 6 7 7 7 8 10 13 15 15 16 18 19 20 21 22 24 24 25 26 26 27 28 29 31 32 33 34 35 36 36 37 37 37 37 37 35 34 33 33 32 32 31 31 31 31 32 34 36 37 38 40 44 48 48 44 40 39 41
22 18 14 15 14 12 14 15 15 15 14 14 14 13 13 14 15 15 15 15 14 12 11 9 8 7 6 6 6 7 8 9 10 13 15 16 18 19 20 20 21 22 25 25 26 27 27 27 28 29 30 31 32 33 34 35 35 36 36 37 38 38 38 38 36 35 35 34 33 32 31 31 32 32 33 35 36 36 36 40 45 47 45 41 42
11 11 14 17 15 12 13 14 13 12 12 11 11 12 13 15 15 15 15 14 13 11 10 9 7 6 6 6 6 7 9 9 10 13 15 17 19 20 21 21 21 23 25 26 26 27 27 28 29 29 31 32 32 32 34 34 36 36 35 37 37 36 39 41 39 37 37 37 36 35 34 33 32 32 33 34 35 35 33 33 36 42 46 43 41
7 11 15 15 14 13 14 14 13 13 12 11 11 12 13 15 15 15 15 13 12 10 9 8 7 6 6 6 7 8 9 10 10 13 16 19 20 20 21 21 23 25 26 26 26 27 27 29 30 30 32 34 34 34 35 35 36 37 37 39 38 36 38 41 41 39 38 37 37 37 36 35 34 33 34 35 35 35 35 33 30 32 38 41 40
10 14 14 14 14 13 14 13 12 12 11 10 11 13 14 15 16 15 14 13 11 9 8 7 6 6 5 5 7 8 9 10 11 14 17 19 20 20 21 22 23 25 25 26 26 27 27 29 30 30 32 34 35 35 35 36 36 36 37 37 36 36 36 38 39 39 38 37 38 38 37 36 35 35 36 36 35 36 36 36 32 28 29 33 34
14 16 15 13 14 13 13 12 10 10 9 9 11 14 15 16 16 14 13 12 11 9 7 6 5 4 4 5 7 8 10 12 13 15 17 19 20 20 21 21 23 25 26 26 26 27 27 28 29 31 32 34 37 37 37 37 37 37 38 36 34 34 36 36 36 37 37 37 38 39 39 39 38 36 36 36 36 36 35 36 34 28 24 26 29
15 17 15 14 13 12 11 11 9 8 9 10 12 15 16 16 15 14 12 11 9 7 5 4 3 3 4 5 7 8 10 12 13 14 17 19 20 20 20 21 23 25 26 26 26 27 28 29 30 32 33 34 37 37 37 38 38 38 39 38 35 34 35 35 35 35 36 36 37 38 40 43 44 41 38 37 36 35 33 35 34 27 20 23 28
16 15 14 14 12 10 9 9 8 8 9 11 13 16 16 15 14 13 11 9 7 5 3 2 2 2 4 5 7 8 10 11 12 14 15 17 19 20 20 22 24 25 25 25 26 27 30 31 30 31 32 33 35 37 37 36 37 36 37 37 36 35 33 33 34 34 34 35 36 36 37 41 46 47 44 43 40 35 30 32 34 29 21 21 26
12 11 10 10 10 9 8 7 7 8 9 12 15 16 16 14 13 11 10 8 7 5 3 2 2 3 4 5 7 8 9 10 12 12 14 16 18 19 20 22 23 24 24 26 27 28 30 30 29 30 32 33 35 37 36 36 36 36 36 36 38 38 36 33 33 33 33 34 34 34 34 36 40 44 46 47 48 43 35 33 36 32 25 24 28
8 9 7 7 8 8 7 7 7 8 10 14 16 16 15 14 12 10 9 7 6 4 3 2 2 3 4 5 7 8 9 10 11 11 13 15 16 17 20 22 22 23 24 26 27 27 28 29 29 30 31 32 33 34 34 34 34 35 36 37 39 41 39 35 33 31 32 34 33 32 32 33 35 39 41 44 50 50 43 38 36 31 27 27 31
6 8 9 8 7 8 8 8 7 9 12 15 17 17 15 13 12 10 8 7 6 4 3 2 2 4 5 6 7 8 9 10 11 11 13 15 15 15 19 22 21 22 24 25 25 26 26 28 30 30 29 29 30 31 31 32 33 34 36 38 39 41 41 38 35 32 32 33 32 30 31 32 34 37 39 40 45 48 45 40 34 29 30 31 34
9 9 9 7 6 7 8 8 8 10 13 16 17 17 15 13 11 9 7 6 5 4 3 2 3 4 5 6 7 8 9 10 11 12 13 15 15 16 19 21 21 21 23 23 24 25 26 27 29 29 28 28 29 29 29 30 32 34 35 36 38 40 41 40 38 36 33 32 30 29 31 34 35 37 38 39 41 43 41 37 32 30 32 33 36
8 7 7 6 6 6 7 7 8 10 14 17 17 16 15 13 11 9 8 7 6 5 3 1 2 3 4 6 7 8 9 11 12 13 13 14 15 17 19 20 21 21 22 23 23 24 25 26 26 26 27 28 29 30 29 28 30 32 32 34 35 36 39 41 41 39 36 35 34 32 32 33 34 33 32 33 36 40 39 34 31 33 35 36 38
8 7 6 5 5 6 7 7 8 11 14 17 17 16 14 12 10 9 8 7 6 4 3 0 2 3 4 6 8 9 10 12 13 13 12 12 14 16 17 19 20 21 22 23 23 24 24 24 24 24 26 28 29 29 28 27 28 29 30 30 29 29 32 38 42 42 40 39 39 38 34 29 28 28 29 31 34 37 36 33 32 34 36 37 38
8 7 6 5 5 7 8 8 8 11 14 16 16 15 14 11 10 9 8 6 5 4 2 1 2 3 4 7 8 9 10 12 13 12 11 12 14 15 16 18 18 19 22 23 23 22 23 23 24 24 26 28 28 27 27 27 29 31 31 29 27 25 24 31 39 42 42 40 40 39 35 28 25 26 27 30 33 34 35 35 34 33 35 37 41
8 7 7 7 6 7 8 9 9 11 13 15 15 14 14 13 11 9 8 6 5 3 3 2 2 3 6 8 8 8 10 12 13 12 12 12 12 13 14 15 15 15 18 21 22 21 21 22 24 25 26 26 26 25 26 29 32 35 35 31 27 24 18 23 34 38 37 36 34 31 27 24 24 23 22 25 28 30 33 34 32 30 33 36 37
7 6 5 5 4 5 6 8 10 11 13 16 15 14 14 14 12 10 8 6 5 4 3 3 3 4 7 8 8 8 10 12 13 13 12 11 12 11 10 11 12 14 17 21 22 21 21 22 24 25 24 23 24 26 28 32 34 34 32 28 25 22 16 16 28 32 30 28 26 23 22 22 21 21 21 22 24 26 28 27 25 27 31 32 33
6 6 5 4 3 4 6 9 12 12 13 15 16 15 14 13 11 10 8 7 5 5 3 2 2 4 7 9 9 9 10 12 13 14 13 12 12 10 8 9 14 18 21 22 22 22 23 23 24 25 24 23 25 28 29 30 31 29 26 22 19 17 14 12 24 31 29 26 24 22 21 21 21 20 20 20 22 24 25 23 22 26 30 31 31
5 6 5 4 5 6 8 10 12 13 14 15 15 14 14 13 11 10 8 6 5 3 2 2 3 4 4 6 9 10 11 12 13 14 14 14 13 11 10 13 18 22 23 22 21 21 23 25 25 26 26 25 25 25 25 25 24 22 20 16 14 13 9 9 22 29 28 25 22 19 19 19 20 20 21 22 24 24 25 26 26 26 27 29 31
Wind_Direction
225 215 202 193 190 186 183 182 181 180 181 179 178 181 178 175 173 165 158 150 156 148 101 67 47 40 37 32 23 20 18 13 13 19 14 13 8 354 350 351 346 341 331 318 293 279 276 270 264 257 253 252 246 238 234 225 223 228 226 230 237 243 247 240 233 247 251 234 225 240 235 227 224 216 217 220 219 223 226 228 230 228 229 228 226
234 223 202 194 191 186 185 184 185 187 187 185 185 187 185 184 180 171 163 154 147 139 129 107 69 43 40 36 22 21 23 16 9 13 11 7 9 8 358 339 337 332 315 309 300 280 274 274 272 268 259 257 255 249 246 238 232 232 228 229 235 238 245 245 233 238 249 237 220 233 236 230 230 226 223 220 219 220 220 224 226 227 229 229 228
237 220 192 192 191 187 186 186 188 190 191 190 191 192 190 188 186 177 168 160 149 146 145 131 108 79 66 56 39 34 35 35 34 39 29 11 359 349 351 341 332 325 308 297 293 285 278 276 275 271 262 255 257 254 250 243 238 235 228 226 229 234 244 246 235 234 242 240 229 232 232 224 227 228 228 226 221 219 219 222 222 223 225 225 226
235 205 180 191 194 190 188 187 188 190 194 194 193 196 195 191 191 181 171 166 155 149 147 139 137 115 93 79 67 66 65 60 57 51 22 355 342 329 342 341 327 314 307 300 290 285 280 280 280 276 269 258 252 253 250 243 240 237 229 225 224 227 237 239 232 231 238 240 231 231 231 232 234 222 219 223 224 222 221 222 220 220 222 221 222
223 193 185 195 194 192 190 189 188 190 196 197 194 198 198 194 191 182 174 170 159 153 153 154 163 155 148 156 126 115 98 62 46 35 8 344 336 330 332 326 316 306 302 298 291 290 291 284 278 277 278 269 256 253 253 247 243 239 232 227 225 225 227 230 230 229 235 239 237 242 237 232 248 234 216 214 218 221 224 222 219 220 221 220 221
221 204 195 193 191 192 192 190 189 191 196 197 196 198 199 197 190 183 178 172 163 156 156 162 167 162 164 167 136 96 83 65 49 41 15 356 346 330 319 307 305 303 298 295 289 288 292 291 283 278 276 272 268 260 256 253 246 242 237 231 228 227 224 224 228 229 235 239 238 247 252 256 280 274 252 224 208 211 220 222 219 219 221 222 224
214 214 199 189 189 191 190 191 191 192 195 196 197 198 200 199 191 184 182 175 168 162 159 166 172 163 153 148 138 102 97 99 90 86 52 17 350 323 306 296 296 297 297 293 290 286 285 282 280 279 273 270 273 270 263 258 251 245 240 236 234 230 224 222 227 229 233 234 232 241 251 256 271 283 280 267 224 205 211 218 219 218 217 221 227
200 208 202 190 188 190 189 189 190 191 192 194 196 196 197 199 192 186 187 179 171 168 165 172 181 171 162 159 153 137 126 131 141 145 122 79 15 329 302 295 289 288 291 290 289 288 285 280 277 276 273 269 269 268 268 264 259 253 242 238 238 234 228 226 229 229 227 228 226 230 241 247 255 269 276 273 269 238 214 214 218 218 216 219 224
194 198 202 195 188 188 187 185 187 191 191 190 192 193 193 195 192 188 188 181 174 172 170 173 175 173 175 175 163 147 145 152 156 158 161 162 143 321 304 301 289 280 282 284 288 287 285 286 283 277 273 272 268 264 266 268 267 263 250 243 241 239 236 232 231 230 227 228 224 223 232 242 247 257 266 265 265 268 248 218 210 211 215 219 221
193 194 196 195 188 184 183 184 188 189 186 187 189 189 188 189 189 189 189 185 179 177 175 174 171 175 182 174 167 161 157 165 166 163 181 206 221 249 291 299 292 285 277 273 277 281 283 285 284 280 277 275 272 267 269 270 272 270 262 256 248 240 238 234 232 232 228 226 224 221 224 228 234 244 252 257 262 262 260 256 234 221 219 219 217
195 194 191 189 186 184 185 186 186 182 181 186 187 184 184 186 189 192 192 189 184 181 180 177 173 180 182 172 170 171 166 171 176 178 192 222 246 249 262 277 280 282 278 269 265 270 278 281 281 280 279 278 274 269 270 268 266 268 266 263 255 243 237 234 232 231 227 224 225 223 219 218 218 223 231 243 261 267 265 269 262 250 229 217 214
197 197 190 185 185 184 185 186 182 179 182 186 184 181 183 187 191 194 194 191 186 183 182 180 178 180 180 175 175 175 174 177 181 184 190 212 237 244 255 264 267 269 269 270 268 264 269 274 276 279 277 276 274 272 275 273 265 262 263 263 261 251 241 234 231 229 226 225 226 223 220 221 222 224 227 232 248 269 281 284 273 263 233 218 216
204 202 197 191 191 185 184 188 185 185 189 187 183 182 184 188 192 195 195 192 188 186 185 182 183 183 181 180 180 180 183 185 187 189 193 208 224 230 248 262 265 266 265 269 271 268 268 268 270 274 275 274 274 276 280 283 276 267 265 264 263 260 251 239 232 229 226 225 226 225 223 224 226 228 228 229 237 250 262 277 282 279 264 241 226
217 211 205 199 197 192 192 195 191 190 193 190 184 184 186 189 192 195 196 193 190 189 188 186 186 185 184 184 184 185 187 189 194 197 200 211 222 229 242 254 260 263 264 266 266 267 267 267 268 268 270 271 274 275 277 279 277 271 270 268 264 263 260 251 239 234 231 227 226 227 226 226 227 230 230 228 230 235 240 244 267 285 278 265 249
217 219 214 202 194 193 197 200 197 196 197 196 192 187 187 189 192 195 195 193 191 190 189 189 188 185 184 184 186 189 190 193 198 201 205 215 226 236 243 249 258 263 264 265 263 266 267 267 267 266 266 269 270 272 273 273 272 270 270 270 268 264 261 259 250 240 236 231 228 227 228 229 228 230 232 231 230 230 233 235 235 268 280 273 264
217 218 216 204 194 195 198 200 201 200 198 198 198 192 186 187 189 193 196 193 191 192 191 191 189 186 184 184 186 188 190 195 200 202 206 217 229 242 249 252 259 264 266 266 264 266 267 267 269 268 267 269 268 269 270 270 269 268 267 267 267 266 262 260 256 249 241 235 233 231 229 230 229 228 231 232 233 231 231 233 229 232 254 274 273
224 219 218 210 198 194 195 199 202 203 203 201 199 193 185 182 183 188 193 192 190 192 194 193 190 186 184 184 185 187 191 195 202 204 208 223 237 246 254 257 261 265 267 268 267 268 269 271 273 273 272 272 270 270 269 269 268 266 265 264 264 264 263 261 258 254 248 240 236 233 231 230 229 228 229 231 232 231 231 231 228 228 232 250 273
224 219 217 212 201 194 195 201 201 205 210 200 193 196 188 179 180 184 189 191 191 191 193 192 190 186 185 185 185 187 192 196 203 209 214 228 239 245 254 260 264 267 270 273 272 271 272 274 274 276 276 274 272 271 270 269 269 267 265 264 261 262 264 263 258 254 252 246 240 236 232 229 228 227 228 230 230 230 230 229 228 228 226 230 253
222 218 214 210 204 198 200 204 205 211 210 188 179 195 192 179 178 183 188 190 188 188 190 190 189 188 185 185 186 187 193 199 204 211 220 229 237 244 253 261 267 271 275 279 279 277 275 274 274 276 276 274 272 271 271 270 268 268 266 264 261 259 260 261 260 256 252 248 245 240 234 230 229 228 228 230 229 229 229 227 227 228 225 226 239
217 214 211 207 204 204 205 206 211 212 192 164 173 186 185 178 176 181 185 186 184 185 188 189 189 188 184 183 186 190 197 202 206 214 223 232 238 244 250 257 265 270 275 279 280 279 278 277 276 276 274 272 272 271 270 270 268 268 266 264 262 260 258 258 258 257 253 249 247 243 238 234 231 229 228 228 227 228 228 227 226 226 226 224 231
214 214 213 206 201 208 210 209 217 208 168 157 174 181 178 177 176 179 181 181 183 185 188 189 188 186 183 182 186 191 199 206 212 219 226 235 239 241 247 256 266 273 278 281 280 279 279 279 277 276 273 271 270 269 268 268 267 267 266 265 263 261 260 259 258 257 256 254 250 245 242 238 233 230 229 227 226 228 228 226 224 224 227 227 225
213 213 216 215 207 208 211 216 221 205 171 169 178 179 180 177 173 176 180 182 184 184 188 189 187 186 184 184 188 193 203 210 216 224 231 237 241 242 250 263 273 279 280 279 278 277 277 277 276 275 273 270 268 267 267 266 265 264 264 264 263 262 261 261 261 259 256 255 254 249 244 241 238 235 233 231 228 228 226 223 221 220 225 229 225
216 214 214 220 218 214 219 220 208 187 176 177 177 179 181 174 172 175 178 182 184 185 189 189 188 188 186 188 194 198 207 213 219 230 236 240 245 248 255 268 276 279 279 276 275 275 275 274 274 273 271 269 267 265 264 263 262 261 261 261 261 261 261 260 262 262 258 256 256 254 248 243 241 239 236 234 232 232 231 227 225 221 224 229 226
220 221 217 217 218 219 226 214 183 179 188 178 174 181 177 171 176 178 178 183 183 185 189 188 188 189 188 193 199 203 211 216 224 235 241 245 250 255 263 272 276 277 276 275 274 273 272 272 272 271 270 268 266 265 264 261 260 260 259 260 259 259 259 258 259 261 262 260 257 256 254 247 242 242 240 236 233 232 230 228 228 224 224 227 226
225 225 221 218 215 216 223 210 191 201 201 181 176 180 172 172 177 176 178 182 183 185 186 188 189 189 192 198 202 209 217 221 231 240 246 252 258 264 270 275 278 277 276 275 273 271 270 269 269 269 269 268 267 265 264 261 260 259 258 258 258 257 257 256 256 256 258 260 258 257 257 253 247 244 242 239 235 231 228 226 226 226 226 225 222
230 228 222 219 215 213 218 215 214 221 210 187 184 180 169 170 172 172 177 179 181 184 185 189 192 190 196 203 207 216 223 228 238 246 252 260 266 271 275 278 279 279 277 275 273 271 269 266 266 268 268 268 268 266 264 262 260 258 257 256 256 255 255 254 255 254 253 254 255 255 255 254 252 250 246 241 238 235 232 230 228 227 229 226 219
228 227 223 217 213 213 216 217 220 227 214 189 186 181 168 164 167 171 175 176 178 182 185 190 193 194 202 209 212 220 228 235 245 252 258 265 271 275 280 282 281 280 278 275 274 273 271 269 267 267 267 267 267 265 264 262 260 257 256 255 254 254 254 253 253 254 253 251 249 250 250 251 254 254 249 244 242 239 235 233 229 226 228 226 220
234 226 224 217 214 212 211 215 220 219 206 190 187 181 166 161 166 171 172 173 176 179 184 189 191 198 207 212 217 226 233 241 249 255 262 270 278 282 283 283 282 280 278 276 276 275 273 271 269 268 267 267 266 265 263 261 259 257 255 254 254 254 253 254 254 253 254 253 249 247 246 246 249 251 250 248 245 242 238 235 232 228 226 225 221
258 239 229 218 217 215 205 212 218 205 193 190 185 175 165 162 167 170 170 171 173 178 183 187 192 199 205 210 219 226 233 243 249 256 268 277 283 285 284 284 282 280 279 278 277 275 274 272 269 268 267 266 264 263 261 259 257 256 255 254 254 254 253 253 254 253 253 252 251 248 245 244 244 247 250 251 250 247 243 239 234 227 224 225 222
282 267 246 226 215 215 213 213 207 192 186 188 183 174 169 167 168 168 170 171 173 178 183 188 194 199 202 211 220 227 235 244 252 263 277 283 283 284 285 285 284 282 282 281 280 278 277 275 272 269 268 266 264 262 260 258 256 255 255 256 255 255 254 252 252 253 253 252 251 249 247 245 244 245 247 250 252 252 250 248 242 232 224 223 223
268 278 268 247 222 218 222 207 187 187 189 188 184 179 175 171 169 168 171 172 173 178 183 188 195 197 201 212 223 233 240 247 260 275 283 283 283 284 285 285 286 286 285 285 283 282 279 277 275 272 269 267 265 262 261 260 258 256 256 256 256 257 256 255 253 252 251 251 251 250 250 248 246 244 244 246 250 252 252 253 250 243 232 225 223
249 252 266 261 242 225 216 188 177 190 194 187 185 185 180 175 172 170 173 174 174 178 183 188 194 198 205 217 228 239 246 253 272 284 284 282 282 284 285 286 288 290 289 287 285 282 280 278 276 274 271 268 265 263 263 262 260 259 257 255 255 256 256 256 255 254 252 250 249 249 250 248 246 243 242 243 245 248 250 252 252 248 241 232 227
240 231 239 253 245 220 195 180 183 191 190 187 189 190 186 179 175 174 174 174 174 178 184 188 193 201 209 222 234 243 251 262 279 287 285 282 282 283 285 288 291 292 291 289 286 283 281 279 277 276 273 271 268 266 265 264 262 261 259 255 253 254 255 255 254 253 253 251 250 249 248 248 246 243 241 240 242 244 246 247 249 248 241 233 231
235 227 228 233 224 200 180 179 184 184 184 188 187 189 186 178 176 176 174 174 177 182 187 189 193 202 213 227 238 246 258 270 283 287 283 280 282 284 286 290 294 293 291 290 288 286 284 281 279 278 276 274 271 270 268 267 266 264 261 258 254 252 253 255 253 252 252 251 250 249 248 247 246 243 240 239 239 241 242 242 242 242 238 233 231
247 239 229 216 199 176 164 169 175 173 175 181 179 180 181 178 179 176 172 177 183 185 188 189 190 203 217 230 242 252 265 277 282 283 281 281 283 286 289 293 295 294 291 290 289 288 285 284 281 279 278 276 273 272 271 269 268 266 264 261 258 253 252 254 253 251 250 249 248 248 249 248 247 244 241 238 238 239 238 237 235 232 231 230 229
252 230 212 195 173 156 156 165 173 171 174 183 185 184 184 181 179 175 174 180 185 187 190 187 189 207 220 233 250 259 270 278 281 282 282 284 286 288 293 296 295 293 292 291 291 289 287 286 284 281 279 277 275 273 272 270 268 266 264 261 258 255 254 253 252 251 249 248 246 246 247 248 248 247 245 242 240 239 239 239 233 224 223 224 224
223 198 173 161 158 157 158 164 173 176 181 193 191 187 186 181 177 177 179 180 183 189 192 184 190 212 226 241 258 266 271 276 280 282 284 286 289 292 296 297 295 295 295 294 293 292 291 290 287 284 282 279 278 276 273 271 268 267 265 261 256 254 254 253 252 251 249 247 245 243 244 246 247 246 246 244 242 240 239 240 237 228 219 217 216
204 164 147 155 160 159 159 164 173 178 187 199 193 186 185 180 177 181 183 183 187 193 189 182 195 220 237 254 267 274 278 280 282 285 287 289 291 294 297 298 297 297 297 297 296 295 294 293 290 287 286 284 281 279 276 273 269 267 265 263 258 256 255 253 252 251 248 246 245 242 242 243 245 244 244 244 244 244 240 238 240 234 215 203 201
181 159 161 165 158 157 160 162 170 179 190 202 195 185 182 180 180 184 186 189 194 189 173 176 205 239 256 266 273 276 279 283 286 288 289 291 292 296 299 300 299 299 299 299 299 299 297 295 293 292 291 288 285 282 279 276 272 267 263 260 258 257 255 254 253 251 248 246 244 242 240 241 243 244 244 242 243 248 245 238 237 231 204 190 194
171 169 169 158 156 168 167 164 176 185 193 198 189 181 179 181 182 183 185 187 182 167 156 177 223 249 260 265 269 274 278 282 286 289 290 291 294 298 302 304 303 301 302 302 302 301 299 298 297 296 295 292 288 285 282 278 273 269 264 260 257 255 254 253 252 249 247 245 243 242 240 240 240 242 244 242 240 246 250 244 236 223 197 183 188
161 153 153 155 168 175 169 173 179 182 190 191 183 178 179 180 179 180 181 175 160 150 155 182 221 250 263 269 274 279 282 284 286 288 291 294 297 301 305 308 306 304 304 304 304 303 301 299 299 299 297 294 289 285 282 278 274 271 269 265 260 256 253 251 248 245 244 243 241 240 239 239 238 240 243 243 240 241 248 251 242 224 200 187 185
114 127 160 182 171 159 164 174 172 179 190 186 179 178 179 178 174 175 176 164 148 149 165 179 223 255 269 275 279 283 284 286 288 289 292 297 302 306 307 308 308 307 306 307 306 304 303 301 301 300 297 295 293 288 284 280 276 274 272 269 263 259 256 249 242 240 241 240 240 240 240 240 238 237 240 242 241 239 243 251 247 226 202 192 187
145 165 185 185 165 163 174 176 174 186 190 182 178 178 177 174 171 171 173 159 144 148 161 178 235 263 271 273 280 287 288 289 292 293 297 301 306 312 311 308 307 307 307 308 308 306 305 304 303 302 298 296 297 294 289 285 281 277 276 272 266 262 258 248 237 235 238 239 239 239 240 241 238 235 235 237 238 237 239 245 241 217 195 188 183
183 171 167 176 184 176 167 165 176 188 185 180 178 177 175 176 174 170 171 166 153 148 149 183 247 270 280 283 291 297 296 296 298 298 299 304 308 311 311 310 310 307 305 307 308 308 309 307 304 302 298 297 300 300 295 290 285 280 278 274 268 262 258 248 237 232 234 237 239 238 237 239 239 236 233 232 231 232 233 234 226 203 186 180 177
170 151 153 180 187 162 158 170 179 184 183 179 177 176 175 179 177 169 172 175 161 149 152 208 279 298 304 303 306 306 303 304 303 300 302 307 308 309 313 316 314 308 304 305 308 310 310 307 304 301 300 301 304 303 299 295 291 286 281 277 273 266 257 247 237 230 229 233 236 238 239 239 237 234 231 226 224 223 221 217 207 190 179 175 173
158 146 158 181 165 154 172 181 176 182 183 177 177 179 179 180 176 169 176 180 161 149 160 193 334 332 329 323 319 316 312 310 304 299 304 311 310 311 318 321 319 313 307 304 306 309 310 308 307 304 303 305 306 304 301 299 297 295 289 286 285 279 262 245 234 229 228 230 233 239 245 244 234 229 225 219 214 210 206 201 194 183 174 172 172
145 142 158 171 166 173 182 180 179 186 182 175 177 181 178 173 169 167 175 174 152 142 143 97 13 348 349 342 331 322 316 312 310 305 307 312 310 312 320 323 322 319 314 310 308 308 310 312 313 310 307 307 307 305 303 304 304 302 298 295 297 297 273 242 229 226 226 228 233 240 244 238 224 216 213 207 200 194 189 185 182 177 173 173 174
137 150 165 165 179 194 188 177 178 183 180 177 180 181 172 163 162 171 175 161 135 127 117 83 43 18 9 351 335 327 321 318 318 315 310 310 313 315 318 319 319 320 319 316 313 309 307 312 316 316 313 311 310 309 309 309 308 306 302 299 301 307 287 237 221 219 219 222 228 229 222 208 194 186 181 179 178 175 172 170 168 169 170 171 171
139 152 162 159 179 195 183 171 169 176 183 180 178 180 173 160 160 173 171 151 140 142 123 80 52 38 19 354 333 331 333 330 326 321 316 313 316 317 314 313 317 322 322 320 317 312 311 314 317 320 319 314 313 315 317 316 313 307 303 300 298 302 294 239 213 207 203 203 202 195 182 171 167 162 157 155 155 155 156 157 158 161 162 161 160
149 162 167 152 159 181 182 171 162 169 182 179 176 180 175 161 165 176 166 155 165 167 137 79 40 38 20 355 334 330 334 334 330 327 324 318 315 318 328 336 335 331 327 326 324 321 323 325 324 326 327 322 318 321 324 324 320 312 308 304 293 290 291 241 200 190 183 178 174 168 162 158 156 154 151 149 148 147 147 146 147 151 154 154 154
171 185 174 143 151 173 178 170 163 168 176 175 174 178 172 164 168 172 163 164 178 167 123 48 23 24 9 341 331 331 334 334 332 332 329 323 319 324 336 344 343 337 332 331 330 329 334 337 337 337 339 335 331 333 336 337 334 327 319 309 294 285 276 208 181 174 168 164 161 158 155 156 156 156 155 153 150 149 147 143 141 144 148 150 150